Location: *
(37.5724°S, 58.0067°E)
Time: 00:46:15
(UTC+00:00)

Cosmos 1980 - Pass Details

Date: 28 January 2021
Orbit: 840 x 846 km, 71.0° (Epoch: 06 March)

Event Time Altitude Azimuth Distance (km) Brightness Sun altitude
Rises 22:08:34 0° 206° (SSW) 3,439 7.3 -29.0°
Reaches altitude 10° 22:11:03 10° 208° (SSW) 2,496 6.5 -28.7°
Enters shadow 22:15:32 52° 236° (WSW) 1,058 4.1 -28.3°
